Home   Weather   Zhengzhou   Past weeks
Flag for China

Past Weather in Zhengzhou, Henan, China — Yesterday and Last 2 Weeks

Now
54 °F

Overcast.


Feels Like: 54 °F
Forecast: 66 / 46 °F
Wind: No wind

Location: Zhengzhou Airport

Current Time: Oct 16, 2019 at 8:28:34 pm

Latest Report: Oct 16, 2019 at 7:00 pm


Visibility: 5 mi

Pressure: 30.33 "Hg

Humidity: 67%

Dew Point: 43 °F

Location of ZhengzhouLocation

Past Weather in Zhengzhou — Graph

°F

Zhengzhou Temperature Yesterday

Maximum temperature yesterday: 61 °F (at 12:00 pm)
Minimum temperature yesterday: 52 °F (at 5:00 am)
Average temperature yesterday: 57 °F

High & Low Weather Summary for the Past Weeks

 TemperatureHumidityPressure
High90 °F (Oct 3, 1:00 pm)100% (Oct 4, 1:00 pm)30.60 "Hg (Oct 4, 1:00 pm)
Low48 °F (Oct 7, 5:00 am)26% (Oct 3, 4:00 pm)29.86 "Hg (Oct 2, 5:00 pm)
Average63 °F71%30.17 "Hg
* Reported Oct 1 7:00 pm — Oct 16 7:00 pm, Zhengzhou. Weather by CustomWeather, © 2019

Note: Actual official high and low records may vary slightly from our data, if they occured in-between our weather recording intervals... More about our weather records

Advertising

Zhengzhou Weather History for the Previous 24 Hours

Scroll right to see more
 ConditionsComfort  
Time TempWeatherWind HumidityBarometerVisibility
7:00 pm
Wed, Oct 16
54 °FOvercast.No wind67%30.33 "Hg5 mi
6:00 pm54 °FOvercast.1 mph67%30.33 "Hg5 mi
5:00 pm55 °FClear.1 mph59%30.33 "Hg5 mi
4:00 pm55 °FClear.1 mph59%30.33 "Hg5 mi
3:00 pm55 °FClear.3 mph55%30.33 "Hg5 mi
2:00 pm55 °FClear.3 mph59%30.33 "Hg5 mi
1:00 pm55 °FClear.1 mph55%30.36 "Hg5 mi
12:00 pm54 °FClear.3 mph58%30.39 "Hg4 mi
11:00 am54 °FClear.1 mph67%30.42 "Hg4 mi
10:00 am52 °FClear.1 mph77%30.45 "Hg4 mi
9:00 am50 °FClear.6 mph82%30.45 "Hg4 mi
8:00 am50 °FClear.3 mph82%30.42 "Hg4 mi
7:00 am50 °FClear.6 mph76%30.39 "Hg4 mi
6:00 am50 °FClear.3 mph76%30.42 "Hg10 mi
5:00 am52 °FClear.3 mph62%30.39 "Hg10 mi
4:00 am52 °FClear.6 mph62%30.39 "Hg10 mi
3:00 am52 °FClear.6 mph58%30.39 "Hg10 mi
2:00 am54 °FPassing clouds.6 mph47%30.42 "HgN/A
1:00 am54 °FLight rain. Passing clouds.6 mph51%30.42 "HgN/A
12:00 am55 °FLight rain. Passing clouds.6 mph47%30.45 "HgN/A
11:00 pm
Tue, Oct 15
55 °FLight rain. Passing clouds.3 mph47%30.45 "HgN/A
10:00 pm55 °FLight rain. Clear.3 mph47%30.48 "HgN/A
9:00 pm57 °FPassing clouds.8 mph41%30.45 "HgN/A
8:00 pm57 °FPassing clouds.8 mph41%30.45 "HgN/A
Weather by CustomWeather, © 2019

See weather overview